Location: Biltmore Gardens
(41.6070°N, 83.4666°W)
Time: 14:23:00
(UTC+00:00)

Cosmos 1980 Rocket - Pass Details

Date: 14 July 2020
Orbit: 828 x 851 km, 71.0° (Epoch: 04 August)

Event Time Altitude Azimuth Distance (km) Brightness Sun altitude
Rises 08:29:32 0° 334° (NNW) 3,426 5.7 -15.6°
Reaches altitude 10° 08:32:00 10° 332° (NNW) 2,485 4.9 -15.3°
Maximum altitude 08:37:41 73° 249° (WSW) 888 2.1 -14.6°
Drops below altitude 10° 08:43:19 10° 166° (SSE) 2,459 4.3 -13.9°
Sets 08:45:45 0° 164° (SSE) 3,386 5.0 -13.6°
